User: anonymous   Login
Location: Gipe Farm
(40.9466°N, 95.5370°W)
Time: 00:54:10
(UTC-05:00)
Language:

Cosmos 2082 Rocket - Orbit

View from above orbital plane
View from above orbital plane
View from above satellite
View from above satellite

Ground track
Ground track

The orbit data is extracted from the following two-line orbital elements,

1 20625U 90046B   16148.70746530 -.00000208  00000-0 -83312-4 0  9999
2 20625  71.0006 238.1662 0015713 324.9006 144.7004 14.14602189343321
Epoch (UTC): 27 May 2016 16:58:45
Eccentricity: 0.0015713
inclination: 71.0006°
perigee height: 832 km
apogee height: 855 km
right ascension of ascending node: 238.1662°
argument of perigee: 324.9006°
revolutions per day: 14.14602189
mean anomaly at epoch: 144.7004°
orbit number at epoch: 34332

The dashed part of the orbit path shows where the satellite is in the earth's shadow,  

DLR